#timestamp,LO_Frequency,Hit,StdDev 
1558083615.4,286047000.2,N
1558083635.2,286047001.8,N
1558083655.1,286047004.2,N
1558083656.0,286047004.2,N
1558083675.8,286047004.1,N
1558083695.6,286047004.1,N
1558083715.5,286047003.9,N
1558083735.3,286047003.6,N
1558083755.2,286047003.9,N
1558083775.9,286047004.4,N
1558083795.7,286047004.3,N
1558083815.6,286047001.8,N
1558083835.4,286047002.1,N
1558083855.2,286046999.9,N
1558083875.1,286047000.1,N
1558083876.0,286047000.1,N
1558083895.8,286047002.5,N
1558083915.7,286047002.2,N
1558083935.5,286047002.7,N
1558083955.3,286046999.7,N
1558083975.2,286046999.9,N
1558083995.0,286047000.8,N
1558083995.9,286047000.8,N
1558084015.8,286047001.1,N
1558084035.6,286047002.5,N
1558084055.4,286047002.2,N
1558084075.3,286047002.0,N
1558084095.1,286047003.6,N
1558084115.8,286047004.1,N
1558084135.7,286047001.8,N
1558084155.5,286047002.8,N
1558084175.4,286047004.2,N
1558084195.2,286047002.1,N
1558084215.0,286047002.6,N
1558084215.9,286047002.6,N
1558084235.8,286047001.0,N
1558084255.6,286047000.9,N
1558084275.5,286046999.0,N
1558084295.3,286046996.9,N
1558084315.1,286046996.7,N
1558084335.9,286046998.9,N
1558084355.7,286046996.9,N
1558084375.5,286046999.4,N
1558084395.4,286047000.9,N
1558084415.2,286047000.7,N
1558084435.1,286047001.2,N
1558084436.0,286047001.2,N
1558084455.8,286047000.1,N
1558084475.6,286047000.4,N
1558084495.5,286046998.1,N
1558084515.3,286047000.7,N
1558084535.1,286047000.8,N
1558084555.9,286046999.8,N
1558084575.7,286047001.0,N
1558084595.6,286046999.8,N
1558084615.4,286046999.7,N
1558084635.2,286046999.7,N
1558084655.1,286047002.0,N
1558084656.0,286047002.0,N
1558084675.8,286047002.4,N
1558084695.6,286047002.8,N
1558084715.5,286047000.3,N
1558084735.3,286046999.9,N
1558084755.2,286047000.4,N
1558084775.9,286046999.9,N
1558084795.7,286047000.2,N
1558084815.6,286047000.4,N
1558084835.4,286046998.9,N
1558084855.2,286046998.9,N
1558084875.1,286046998.1,N
1558084876.0,286046998.1,N
1558084895.8,286047001.2,N
1558084915.7,286046999.9,N
1558084935.5,286046999.9,N
1558084955.3,286047002.7,N
1558084975.2,286046999.9,N
1558084995.0,286046998.2,N
1558084995.9,286046998.2,N
1558085015.8,286046998.8,N
1558085035.6,286046999.4,N
1558085055.4,286046996.7,N
1558085075.3,286046997.4,N
1558085095.1,286046997.8,N
1558085115.9,286046997.6,N
1558085135.7,286046997.4,N
1558085155.5,286046996.8,N
1558085175.4,286046997.5,N
1558085195.2,286046996.8,N
1558085215.0,286046999.0,N
1558085215.9,286046999.0,N
1558085235.8,286046999.4,N
1558085255.6,286046999.4,N
1558085275.5,286046998.4,N
1558085295.3,286047001.1,N
1558085315.1,286047000.6,N
1558085335.9,286047000.0,N
1558085355.7,286047000.5,N
1558085375.5,286047000.2,N
1558085395.4,286046999.8,N
1558085415.2,286047002.4,N
1558085435.1,286047003.5,N
1558085436.0,286047003.5,N
1558085455.8,286047004.8,N
1558085475.6,286047007.4,Y
1558085495.5,286047008.5,P
1558085515.3,286047010.3,N
1558085535.1,286047007.8,N
1558085555.9,286047011.9,N
1558085575.7,286047008.6,N
1558085595.6,286047007.9,N
1558085615.4,286047008.8,N
1558085635.2,286047006.5,N
1558085655.1,286047006.1,N
1558085656.0,286047006.1,N
1558085675.8,286047006.7,N
1558085695.6,286047005.2,N
1558085715.5,286047005.7,N
1558085735.3,286047002.9,N
1558085755.2,286047001.4,N
1558085775.9,286047003.8,N
1558085795.7,286047003.4,N
1558085815.6,286047004.1,N
1558085835.4,286047001.4,N
1558085855.2,286047002.4,N
1558085875.1,286047001.5,N
1558085876.0,286047001.5,N
1558085895.8,286047002.2,N
1558085915.7,286047001.6,N
1558085935.5,286047001.3,N
1558085955.3,286047003.6,N
1558085975.2,286047004.8,N
1558085995.0,286047005.6,N
1558085995.9,286047005.6,N
1558086015.8,286047003.4,N
1558086035.6,286047004.2,N
1558086055.4,286047001.6,N
1558086075.3,286047002.9,N
1558086095.1,286047002.9,N
1558086115.8,286047003.4,N
1558086135.7,286047004.5,N
1558086155.5,286047009.1,Y
1558086175.4,286047003.5,P
1558086195.2,286047004.2,P
1558086215.0,286047004.4,P
1558086215.9,286047004.4,Y
1558086235.8,286046999.0,P
1558086255.6,286046997.4,N
1558086275.4,286046995.7,N
1558086295.3,286046995.2,N
1558086315.1,286046994.5,N
1558086335.9,286046994.5,N
1558086355.7,286046991.7,N
1558086375.5,286046990.8,N
1558086395.4,286046992.8,N
1558086415.2,286046992.9,N
1558086435.0,286046988.5,Y
1558086436.0,286046988.5,P
1558086455.8,286046993.3,N
1558086475.6,286046996.0,N
1558086495.5,286046997.3,N
1558086515.3,286046999.5,N
1558086535.1,286046997.4,N
1558086555.9,286046997.4,N
1558086575.7,286046995.1,N
1558086595.5,286046993.4,N
1558086615.4,286046994.0,N
1558086635.2,286046994.1,N
1558086655.1,286046995.3,N
1558086656.0,286046995.3,N
1558086675.8,286046995.5,N
1558086695.6,286046993.7,N
1558086715.5,286046995.3,N
1558086735.3,286046996.3,N
1558086755.1,286046995.6,N
1558086775.9,286046996.4,N
1558086795.7,286046996.4,N
1558086815.6,286046993.4,Y
1558086835.4,286046999.5,P
1558086855.2,286046997.6,N
1558086875.1,286046997.5,N
1558086876.0,286046997.5,N
1558086895.8,286046996.7,N
1558086915.7,286046997.3,N
1558086935.5,286046996.9,N
1558086955.3,286046995.4,Y
1558086975.2,286046996.5,P
1558086995.0,286046996.7,P
1558086995.9,286046996.7,P
1558087015.7,286046997.7,Y
1558087035.6,286047001.0,P
1558087055.4,286046999.2,N
1558087075.3,286046997.0,N
1558087095.1,286046998.9,N
1558087096.0,286046998.9,N
1558087115.8,286047000.8,N
1558087135.7,286047000.7,N
1558087155.5,286047002.6,N
1558087175.4,286047002.6,N
1558087195.2,286047002.3,N
